sat.trackr.live / text

‹ back to catalog

ONEWEB-0392

NORAD 50472 · 2021-132D

PAYLOAD ACTIVE UNKNOWN

§ Identity

Operator
Country
UK
Launch date
2021-12-27
Launch site
TYMSC
Launch vehicle
Mass (kg)
RCS (m²)

Purposes: comms

External: N2YO · Heavens-Above · Gunter

§ Orbital elements

Epoch: 2026-09-20T00:01:08.842656Z

Period
109.29 min
Inclination
87.9210°
Eccentricity
0.0002124
Mean motion
13.17650541 rev/d
Perigee alt
1,192.1 km
Apogee alt
1,195.3 km
Semi-major
7,571.8 km
B*
-1.0150e-4
RAAN
347.0269°
Arg perigee
111.2579°
Mean anomaly
248.8779°
Rev number
23,060

§ Raw data

ONEWEB-03921 50472U 21132D   26263.00079679 -.00000027  00000+0 -10150-3 0  99942 50472  87.9210 347.0269 0002124 111.2579 248.8779 13.17650541230602

JSON: /api/v1/satellites/50472 · /tle

For live sub-satellite position, see the globe view (requires WebGL).

§ Visibility from observer

Set your observer location to see the next 7 days of passes ≥ 10°. The values pass through the URL so the page stays shareable.

No JS? Fill the form by hand. The geolocation button needs JavaScript.